Skip Page Navigation
NASA JPL Caltech
NASA Logo - Jet Propulsion Laboratory + View the NASA Portal
+ Center for Near-Earth Object Studies
JPL Home Earth Solar System Stars & Galaxies Technology
JPL Solar System Dynamics
BODIES ORBITS EPHEMERIDES TOOLS PHYSICAL DATA DISCOVERY FAQ SITE MAP
JPL Small-Body Database Browser
Search: [ help ]  
91478 (1999 RO99)
Classification: Main-belt Asteroid          SPK-ID: 2091478
Ephemeris | Orbit Diagram | Orbital Elements | Mission Design | Physical Parameters | Discovery Circumstances | Close-Approach Data ]

[ show orbit diagram ]
Orbital Elements at Epoch 2459000.5 (2020-May-31.0) TDB
Reference: JPL 22 (heliocentric ecliptic J2000)
 Element Value Uncertainty (1-sigma)   Units 
e .3249999333883578 5.9044e-08  
a 2.757499672911548 1.4384e-08 au
q 1.861312462896876 1.6268e-07 au
i 8.068518277227017 6.8827e-06 deg
node 226.2839589139742 4.0325e-05 deg
peri 174.171591547293 4.1145e-05 deg
M 143.1905855193251 1.0763e-05 deg
tp 2458335.251972590040
(2018-Aug-04.75197259)
4.6227e-05 TDB
period 1672.521199623588
4.58
1.3086e-05
3.583e-08
d
yr
n .2152439084664639 1.6841e-09 deg/d
Q 3.653686882926219 1.9058e-08 au
  Orbit Determination Parameters
   # obs. used (total)      603  
   data-arc span      14066 days (38.51 yr)  
   first obs. used      1981-10-23  
   last obs. used      2020-04-27  
   planetary ephem.      DE431  
   SB-pert. ephem.      SB431-N16  
   condition code      0  
   norm. resid. RMS      .53034  
   source      ORB  
   producer      Otto Matic  
   solution date      2020-May-20 16:41:36  

Additional Information
 Earth MOID = .8699 au 
 Jupiter MOID = 1.77312 au 
 T_jup = 3.250 
[ show covariance matrix ]

Ephemeris | Orbit Diagram | Orbital Elements | Mission Design | Physical Parameters | Discovery Circumstances | Close-Approach Data ]

Physical Parameter Table
Parameter Symbol Value Units Sigma Reference Notes
absolute magnitude H 15.1   n/a MPO266324  
diameter diameter 2.732 km 0.826 urn:nasa:pds:neowise_diameters_albedos::2.0[mainbelt] (http://adsabs.harvard.edu/abs/2011ApJ...741...68M)  
geometric albedo albedo 0.237   0.189 urn:nasa:pds:neowise_diameters_albedos::2.0[mainbelt] (http://adsabs.harvard.edu/abs/2011ApJ...741...68M)  

91478 (1999 RO99)          Discovered 1999-Sep-08 by LINEAR at Socorro
Reference: 20041028/Numbers.arcLast Updated: 2004-10-29

[ show close-approach data ]
Alternate Designations
 1999 RO99 = 1981 UR13 
Ephemeris | Orbit Diagram | Orbital Elements | Mission Design | Physical Parameters | Discovery Circumstances | Close-Approach Data ]
ABOUT SSD CREDITS/AWARDS PRIVACY/COPYRIGHT GLOSSARY LINKS
FirstGov 2020-Sep-27 00:55 UT
(server date/time)  
NASA Home Page
Site Manager:   Ryan S. Park
Webmaster  Alan B. Chamberlin